PAJNPAGS

Guest
Details From PAJN - Juneau Intl
To PAGS - GUSTAVUS
Flight Number -
Tags generated
Created
Modified
Stats Distance 36 nm / 66 km
Max Altitude 1,300 ft / 396 m
Waypoints 3
Social Downloads 1
Likes 0
Share VATSIM

Download

Looking for another format? Having issues loading an existing format? Contact us
Advertisement - Login to hide

Notes

Basic altitude profile: - Ascent Rate: 1500ft/min - Ascent Speed: 97kts - Cruise Altitude: 1000ft - Cruise Speed: 110kts - Descent Rate: 1500ft/min - Descent Speed: 250kts Options: - Use NATs: yes - Use PACOTS: yes - Use low airways: yes - Use high airways: no

Route

PAJN CGL PAGS

ID Type Via Altitude Latitude Longitude Leg Dist Tot Dist Heading (true) Name
O PAJN APT - 0 ft / 0 m 58.35496˚ -134.57628˚ - 0 nm - Juneau Intl
CGL NDB - 1,300 ft / 396 m 58.35933˚ -134.69944˚ 3 nm 3 nm 274° / 274° COGHLAN ISLAND NDB
O PAGS APT - 0 ft / 0 m 58.42469˚ -135.70896˚ 32 nm 35 nm 277° / 277° GUSTAVUS

Altitude Profile

Advertisement - Login to hide

PAJN

Details ICAO PAJN (JNU)
Name Juneau Intl
Region USA (Alaska)
Timezone America/Juneau (UTC-9.0)
Stats Elevation 21 ft / 6 m (AMSL)
Location 58.354964° -134.576278°
Runways 1
Magnetic Variation 19.150° E

METAR

PAJN 120253Z 09011KT 7SM -RA FEW003 BKN044 OVC070 07/06 A2996

Decode

TAF

TAF PAJN 112326Z 1200/1224 11010KT 6SM -RA BR FEW015 BKN035 OVC050 FM120600 10007KT 4SM -RA BR SCT015 BKN040 OVC060 FM122000 10007KT P6SM VCSH SCT015 BKN040 OVC060

Decode

Departure Runways

ID Width Length Bearing (true) Bearing (mag) Surface Threshold Offset Overrun Length
08 150 ft / 46 m 8,430 ft / 2,570 m 104.87° 85.72° Asphalt 0 ft / 0 m 450 ft / 137 m
26 150 ft / 46 m 8,430 ft / 2,570 m 284.90° 265.75° Asphalt 0 ft / 0 m 225 ft / 69 m

PAGS

Details ICAO PAGS (GST)
Name GUSTAVUS
Region USA (Alaska)
Timezone America/Juneau (UTC-9.0)
Stats Elevation 34 ft / 10 m (AMSL)
Location 58.424690° -135.708964°
Runways 2
Magnetic Variation 19.054° E

METAR

PAGS 120256Z AUTO 33004KT 7SM OVC033 04/04 A2998 RMK AO2 RAB16E52 SLP152 P0000 60000 T00390039 56015

Decode

TAF

TAF AMD PAGS 120017Z 1200/1224 12005KT P6SM VCSH SCT020 OVC060 TEMPO 1200/1204 00000KT 6SM BR SCT008 BKN020 OVC050 FM120600 14005KT 6SM -RA BR BKN015 OVC030 FM122000 11005KT P6SM VCSH SCT015 OVC040 AMD LTD TO CLD VIS AND WIND

Decode

Destination Runways

ID Width Length Bearing (true) Bearing (mag) Surface Threshold Offset Overrun Length
02 60 ft / 18 m 3,003 ft / 915 m 40.96° 21.91° Asphalt 0 ft / 0 m 0 ft / 0 m
11 150 ft / 46 m 6,704 ft / 2,044 m 135.06° 116.01° Asphalt 0 ft / 0 m 0 ft / 0 m
20 60 ft / 18 m 3,003 ft / 915 m 220.97° 201.92° Asphalt 0 ft / 0 m 0 ft / 0 m
29 150 ft / 46 m 6,704 ft / 2,044 m 315.08° 296.03° Asphalt 0 ft / 0 m 0 ft / 0 m

Popular Alternatives